| time (UTC) | temp F | wind direction | speed knots | gust knots | rain 1hr in | rain 24hr in | rain mn in | humidity % | barometer mb |
| 20260506061502 | 59 | 269 | 0.0 | 2.6 | 0.00 | 0.00 | 0.00 | 51 | 1007.1 |
| 20260506050109 | 63 | 360 | 0.9 | 2.6 | 0.00 | 0.00 | 0.00 | 45 | 1006.3 |
| 20260506044602 | 63 | 360 | 0.0 | 4.3 | 0.00 | 0.00 | 0.00 | 47 | 1006.1 |
| 20260506043102 | 63 | 32 | 0.9 | 3.5 | 0.00 | 0.00 | 0.00 | 46 | 1006.1 |
| 20260506041558 | 63 | 56 | 0.9 | 4.3 | 0.00 | 0.00 | 0.00 | 49 | 1006.0 |
| 20260506040057 | 64 | 360 | 0.9 | 5.2 | 0.00 | 0.00 | 0.00 | 47 | 1005.8 |
| 20260506034603 | 64 | 360 | 0.0 | 5.2 | 0.00 | 0.06 | 0.00 | 46 | 1005.4 |
| 20260506033114 | 64 | 360 | 0.9 | 7.0 | 0.00 | 0.06 | 0.00 | 47 | 1005.1 |
| 20260506031556 | 65 | 360 | 2.6 | 11.3 | 0.00 | 0.06 | 0.00 | 47 | 1005.0 |
| 20260506024613 | 65 | 360 | 0.9 | 5.2 | 0.00 | 0.09 | 0.00 | 45 | 1004.9 |
| 20260506023102 | 66 | 32 | 0.0 | 0.0 | 0.00 | 0.09 | 0.00 | 43 | 1004.8 |
| 20260506021559 | 67 | 360 | 0.0 | 0.9 | 0.00 | 0.09 | 0.00 | 41 | 1004.7 |
| 20260506020053 | 68 | 34 | 0.0 | 1.7 | 0.00 | 0.09 | 0.00 | 38 | 1004.7 |
| 20260506014552 | 68 | 360 | 0.0 | 3.5 | 0.00 | 0.14 | 0.00 | 37 | 1004.6 |
| 20260506013052 | 69 | 360 | 0.9 | 4.3 | 0.00 | 0.14 | 0.00 | 35 | 1004.8 |
| 20260506011610 | 68 | 173 | 1.7 | 5.2 | 0.00 | 0.14 | 0.00 | 37 | 1004.9 |
| 20260506010047 | 68 | 173 | 0.9 | 7.0 | 0.00 | 0.14 | 0.00 | 37 | 1004.9 |
| 20260506004547 | 69 | 173 | 0.0 | 3.5 | 0.00 | 0.15 | 0.00 | 37 | 1005.0 |
| 20260506003045 | 69 | 173 | 0.9 | 4.3 | 0.00 | 0.15 | 0.00 | 36 | 1005.1 |
| 20260506001545 | 69 | 173 | 2.6 | 7.8 | 0.00 | 0.15 | 0.00 | 37 | 1005.1 |
| 20260506000053 | 69 | 182 | 0.9 | 5.2 | 0.00 | 0.15 | 0.00 | 36 | 1005.2 |
| 20260505234543 | 69 | 182 | 1.7 | 4.3 | 0.00 | 0.15 | 0.00 | 38 | 1005.3 |
| 20260505233041 | 68 | 182 | 1.7 | 6.1 | 0.00 | 0.15 | 0.00 | 38 | 1005.3 |
| 20260505231544 | 68 | 182 | 0.0 | 7.8 | 0.00 | 0.15 | 0.00 | 36 | 1005.5 |
| 20260505230041 | 69 | 182 | 4.3 | 8.7 | 0.00 | 0.15 | 0.00 | 36 | 1005.6 |
| 20260505224541 | 68 | 215 | 0.0 | 6.1 | 0.00 | 0.15 | 0.00 | 39 | 1005.8 |
| 20260505223039 | 69 | 213 | 0.9 | 6.1 | 0.00 | 0.15 | 0.00 | 39 | 1005.8 |
| 20260505221545 | 70 | 201 | 1.7 | 6.1 | 0.00 | 0.15 | 0.00 | 41 | 1006.1 |
| 20260505220052 | 70 | 200 | 0.9 | 5.2 | 0.00 | 0.15 | 0.00 | 38 | 1006.4 |
| 20260505214533 | 68 | 200 | 0.0 | 4.3 | 0.00 | 0.15 | 0.00 | 42 | 1006.7 |
| 20260505213033 | 67 | 200 | 0.0 | 5.2 | 0.00 | 0.15 | 0.00 | 44 | 1006.8 |
| 20260505211537 | 67 | 232 | 1.7 | 6.1 | 0.00 | 0.15 | 0.00 | 44 | 1006.9 |
| 20260505210028 | 66 | 233 | 1.7 | 5.2 | 0.00 | 0.15 | 0.00 | 49 | 1007.2 |
| 20260505204526 | 66 | 233 | 1.7 | 4.3 | 0.00 | 0.15 | 0.00 | 49 | 1007.3 |
| 20260505203022 | 64 | 244 | 2.6 | 7.0 | 0.00 | 0.15 | 0.00 | 52 | 1007.3 |
| 20260505201520 | 62 | 248 | 0.0 | 6.1 | 0.00 | 0.15 | 0.00 | 51 | 1007.5 |
| 20260505200018 | 63 | 250 | 1.7 | 6.1 | 0.00 | 0.15 | 0.00 | 52 | 1007.7 |
| 20260505194521 | 62 | 248 | 1.7 | 5.2 | 0.00 | 0.15 | 0.00 | 54 | 1007.9 |
| 20260505193015 | 62 | 223 | 0.0 | 7.0 | 0.00 | 0.15 | 0.00 | 59 | 1007.9 |
| 20260505191512 | 61 | 230 | 1.7 | 4.3 | 0.00 | 0.15 | 0.00 | 60 | 1007.8 |
| 20260505190007 | 59 | 233 | 0.0 | 3.5 | 0.00 | 0.15 | 0.00 | 63 | 1007.8 |
| 20260505184503 | 57 | 252 | 0.0 | 3.5 | 0.00 | 0.15 | 0.00 | 69 | 1007.8 |
| 20260505183106 | 56 | 252 | 0.9 | 3.5 | 0.00 | 0.15 | 0.00 | 68 | 1007.8 |
| 20260505181607 | 56 | 270 | 0.9 | 2.6 | 0.00 | 0.15 | 0.00 | 72 | 1007.8 |
| 20260505180055 | 55 | 286 | 0.0 | 4.3 | 0.00 | 0.15 | 0.00 | 76 | 1007.7 |
| 20260505174551 | 53 | 281 | 0.0 | 5.2 | 0.00 | 0.15 | 0.00 | 81 | 1007.7 |
| 20260505173047 | 52 | 43 | 0.0 | 3.5 | 0.00 | 0.15 | 0.00 | 81 | 1007.6 |
| 20260505171545 | 50 | 43 | 0.0 | 3.5 | 0.00 | 0.15 | 0.00 | 83 | 1007.6 |
| 20260505170038 | 49 | 43 | 0.0 | 2.6 | 0.00 | 0.15 | 0.00 | 83 | 1007.6 |
| 20260505164552 | 49 | 43 | 0.0 | 1.7 | 0.00 | 0.15 | 0.00 | 83 | 1007.6 |
| 20260505163036 | 48 | 43 | 0.0 | 3.5 | 0.00 | 0.15 | 0.00 | 83 | 1007.6 |
| 20260505161533 | 47 | 43 | 0.0 | 2.6 | 0.00 | 0.15 | 0.00 | 83 | 1007.3 |
| 20260505153018 | 46 | 43 | 0.0 | 0.0 | 0.00 | 0.15 | 0.00 | 83 | 1006.8 |
| 20260505151516 | 46 | 43 | 0.0 | 0.0 | 0.00 | 0.15 | 0.00 | 80 | 1006.7 |
| 20260505130105 | 44 | 43 | 0.0 | 3.5 | 0.00 | 0.15 | 0.00 | 78 | 1005.2 |
| 20260505124612 | 44 | 43 | 0.9 | 4.3 | 0.00 | 0.15 | 0.00 | 78 | 1005.2 |
| 20260505123101 | 45 | 43 | 0.0 | 0.9 | 0.00 | 0.15 | 0.00 | 77 | 1005.3 |
| 20260505121559 | 45 | 43 | 0.0 | 1.7 | 0.00 | 0.15 | 0.00 | 77 | 1005.3 |
| 20260505120106 | 45 | 43 | 0.0 | 2.6 | 0.00 | 0.15 | 0.00 | 77 | 1005.1 |
| 20260505114557 | 44 | 43 | 0.0 | 0.0 | 0.00 | 0.15 | 0.00 | 77 | 1005.2 |
| 20260505113114 | 44 | 43 | 0.0 | 0.0 | 0.00 | 0.15 | 0.00 | 77 | 1005.1 |
| 20260505111555 | 44 | 43 | 0.0 | 0.0 | 0.00 | 0.15 | 0.00 | 78 | 1005.1 |
| 20260505101552 | 44 | 43 | 0.0 | 0.9 | 0.00 | 0.15 | 0.00 | 78 | 1005.3 |
| 20260505100051 | 44 | 43 | 0.0 | 2.6 | 0.00 | 0.15 | 0.00 | 78 | 1005.4 |
| 20260505094549 | 44 | 43 | 0.0 | 4.3 | 0.00 | 0.15 | 0.00 | 78 | 1005.6 |
| 20260505093054 | 44 | 44 | 0.9 | 3.5 | 0.00 | 0.15 | 0.00 | 79 | 1005.6 |
| 20260505091548 | 43 | 44 | 0.0 | 6.1 | 0.00 | 0.15 | 0.00 | 79 | 1005.5 |
| 20260505090046 | 43 | 89 | 1.7 | 7.0 | 0.00 | 0.15 | 0.00 | 79 | 1005.6 |
| 20260505084551 | 43 | 119 | 0.0 | 0.0 | 0.00 | 0.15 | 0.00 | 81 | 1005.7 |
| 20260505083050 | 43 | 119 | 0.0 | 0.0 | 0.00 | 0.15 | 0.00 | 80 | 1005.9 |
| 20260505081548 | 44 | 119 | 0.0 | 0.0 | 0.00 | 0.15 | 0.00 | 80 | 1006.2 |
| 20260505080041 | 44 | 118 | 0.0 | 3.5 | 0.00 | 0.15 | 0.00 | 79 | 1006.0 |
| 20260505074541 | 44 | 30 | 0.9 | 7.8 | 0.00 | 0.15 | 0.00 | 80 | 1005.8 |
| 20260505073037 | 44 | 355 | 0.0 | 4.3 | 0.00 | 0.15 | 0.00 | 79 | 1006.4 |
| 20260505071535 | 44 | 333 | 0.0 | 2.6 | 0.00 | 0.15 | 0.00 | 79 | 1006.5 |